Location: Unspecified
(0.0000°N, 0.0000°E)
Time: 16:30:23
(UTC+00:00)

Vanguard 1 - Pass Details

Date: 23 December 2025
Orbit: 651 x 3820 km, 34.2° (Epoch: 14 January)

Event Time Altitude Azimuth Distance (km) Brightness Sun altitude
Rises 00:56:05 0° 224° (SW) 7,223 14.6 -62.8°
Reaches altitude 10° 01:02:11 10° 217° (SW) 5,725 14.0 -62.0°
Enters shadow 01:09:30 25° 199° (SSW) 3,895 13.1 -61.0°
